Change the Weather History Date:

Saturday, August 17, 2013

  Actual Average Record
Temperature  
Mean Temperature 82 °F -  
Max Temperature 92 °F - - ()
Min Temperature 73 °F - - ()
Cooling Degree Days 18    
Growing Degree Days 32 (Base 50)    
Moisture  
Dew Point 76 °F    
Average Humidity 82    
Maximum Humidity 100    
Minimum Humidity 58    
Precipitation  
Precipitation 0.00 in - - ()
Sea Level Pressure  
Sea Level Pressure 30.04 in    
Wind  
Wind Speed 2 mph ()    
Max Wind Speed 5 mph    
Max Gust Speed -    
Visibility 12.0 miles    
Events      
T = Trace of Precipitation, MM = Missing Value Source: Averaged Metar Reports

Daily Weather History Graph

Daily Weather History Graph

Search for Another Location

Airport or City:

Trip Planner

Search our weather history database for the weather conditions in past years. The results will help you decide how hot, cold, wet, or windy it might be!

Date:

Astronomy

Aug. 17, 2013 Rise Set
Actual Time 6:15 AM CEST 7:58 PM CEST
Civil Twilight 5:46 AM CEST 8:27 PM CEST
Nautical Twilight 5:11 AM CEST 9:02 PM CEST
Astronomical Twilight 4:33 AM CEST 9:39 PM CEST
Moon 4:58 PM CEST (8/17) 2:00 AM CEST (8/17)
Length of Visible Light 14h 40m
Length of Day
13h 42m
Waxing Gibbous, 82% of the Moon is Illuminated
Aug 17
Waxing Gibbous
Aug 21
Full
Aug 28
Last Quarter
Sep 5
New
Sep 12
First Quarter

Hourly Weather History & Observations

Time (CEST) Temp. Heat Index Dew Point Humidity Pressure Visibility Wind Dir Wind Speed Gust Speed Precip Events Conditions
12:55 AM 77.0 °F - 75.2 °F 94% 30.04 in - North - - N/A   Clear
1:55 AM 77.0 °F - 75.2 °F 94% 30.04 in - North - - N/A   Clear
2:00 AM 77 °F - 76 °F 95% 30.03 in 12 mi North 1.2 mph - -  
2:55 AM 75.2 °F - 73.4 °F 94% 30.04 in - North - - N/A   Clear
5:00 AM 74 °F - 73 °F 97% 30.02 in 12 mi 2.3 mph - -  
6:55 AM 73.4 °F - 73.4 °F 100% 30.04 in - North - - N/A   Clear
7:55 AM 75.2 °F - 73.4 °F 94% 30.04 in - North - - N/A   Clear
8:00 AM 74 °F - 73 °F 97% 30.02 in 12 mi Calm Calm - -  
8:55 AM 75.2 °F - 73.4 °F 94% 30.04 in - North - - N/A   Clear
9:55 AM 80.6 °F 84.6 °F 71.6 °F 74% 30.04 in - North - - N/A   Clear
10:55 AM 82.4 °F 88.2 °F 73.4 °F 74% 30.04 in - North - - N/A   Clear
11:00 AM 83 °F - 74 °F 66% 30.03 in 12 mi 2.3 mph - -  
11:55 AM 84.2 °F 90.9 °F 73.4 °F 70% 30.04 in - North - - N/A   Clear
12:55 PM 86.0 °F 96.9 °F 77.0 °F 74% 30.04 in - North - - N/A   Clear
1:55 PM 87.8 °F 102.5 °F 78.8 °F 75% 30.06 in - North - - N/A   Clear
2:00 PM 88 °F - 79 °F 69% 30.04 in 12 mi 4.6 mph - -  
2:55 PM 89.6 °F 102.2 °F 77.0 °F 66% 30.06 in - North - - N/A   Clear
3:55 PM 91.4 °F 107.2 °F 78.8 °F 66% 30.06 in - North - - N/A   Clear
5:00 PM 90 °F - 77 °F 58% 30.02 in 12 mi 3.5 mph - -   Partly Cloudy
5:55 PM 91.4 °F 111.0 °F 80.6 °F 71% 30.04 in - North - - N/A   Clear
6:55 PM 89.6 °F 104.7 °F 78.8 °F 70% 30.04 in - North - - N/A   Clear
7:55 PM 82.4 °F 90.9 °F 77.0 °F 84% 30.04 in - North - - N/A   Clear
8:00 PM 83 °F - 77 °F 79% 30.01 in 12 mi 1.2 mph - -   Partly Cloudy
8:55 PM 78.8 °F - 77.0 °F 94% 30.04 in - North - - N/A   Clear
11:00 PM 77 °F - 76 °F 95% 30.04 in 12 mi 1.2 mph - -